Location: Clifton Park
(41.4873°N, 81.8024°W)
Time: 05:55:04
(UTC+00:00)

Cosmos 1758 Rocket - Pass Details

Date: 21 January 2020
Orbit: 603 x 635 km, 82.5° (Epoch: 23 February)

Event Time Altitude Azimuth Distance (km) Brightness Sun altitude
Exits shadow 11:19:18 13° 339° (NNW) 1,813 5.6 -16.5°
Maximum altitude 11:23:05 48° 267° (W) 807 3.7 -15.9°
Drops below altitude 10° 11:27:19 10° 193° (SSW) 1,985 6.2 -15.1°
Sets 11:29:35 0° 187° (S) 2,892 7.1 -14.7°
